Location: Newark
(42.8481°N, 0.4872°E)
Time: 08:29:31
(UTC+00:00)

SR - Pass Details

Date: 06 November 2020
Orbit: 579 x 876 km, 66.7° (Epoch: 29 November)

Event Time Altitude Azimuth Distance (km) Brightness Sun altitude
Rises 00:06:25 0° 213° (SSW) 2,781 - -62.7°
Reaches altitude 10° 00:08:36 10° 215° (SW) 1,890 - -62.6°
Maximum altitude 00:12:49 76° 302° (WNW) 614 - -62.4°
Drops below altitude 10° 00:17:14 10° 28° (NNE) 1,982 - -62.2°
Sets 00:19:35 0° 30° (NNE) 2,929 - -62.0°
